GSAT-29

Last updated on Sept. 26, 2020, 5:40 a.m. UTC

1 43698U 18089A   20269.77494192  .00000062  00000-0  00000-0 0  9996
2 43698   0.0334 115.7160 0001652  67.5550 155.7621  1.00274419  6826
UTC
Height (km)
Latitude
Longitude
Inclination
Orbital Period
UTC large
Height (km)
Speed (km/s)
/
Latitude / Longitude
Inclination (degrees)
Orbital Period (minutes)
Azimuth
Elevation
Range (km)
Doppler Factor
iOS Compass Heading
iOS Angle

Next 30 passes for location: Hong Kong

Rise time Rise Azimuth (degrees) Set time Set Azimuth (degrees) Duration Max altitude (degrees)

No matching passes for this satellites